sat.trackr.live / text

‹ back to catalog

STARLINK-11694 [DTC]

NORAD 64243 · 2025-119L

PAYLOAD ACTIVE UNKNOWN

§ Identity

Operator
Country
US
Launch date
2025-06-03
Launch site
AFETR
Launch vehicle
Mass (kg)
RCS (m²)

Purposes: comms

External: N2YO · Heavens-Above · Gunter

§ Orbital elements

Epoch: 2026-09-20T22:00:03.000096Z

Period
89.68 min
Inclination
42.9810°
Eccentricity
0.0018055
Mean motion
16.05786363 rev/d
Perigee alt
246.4 km
Apogee alt
270.4 km
Semi-major
6,636.6 km
B*
7.8420e-4
RAAN
100.8577°
Arg perigee
282.2240°
Mean anomaly
138.4263°
Rev number
603

§ Raw data

STARLINK-11694 [DTC]1 64243U 25119L   26263.91670139  .00601008  18154-3  78420-3 0  99932 64243  42.9810 100.8577 0018055 282.2240 138.4263 16.05786363  6033

JSON: /api/v1/satellites/64243 · /tle

For live sub-satellite position, see the globe view (requires WebGL).

§ Visibility from observer

Set your observer location to see the next 7 days of passes ≥ 10°. The values pass through the URL so the page stays shareable.

No JS? Fill the form by hand. The geolocation button needs JavaScript.